Hourly Data Report for October 26, 2016

All times are specified in Local Standard Time (LST). Add 1 hour to adjust for Daylight Saving Time where and when it is observed.

TORONTO INTL A
ONTARIO

43°40'36.000" N
79°37'50.000" W
173.40 m
6158731
71624
YYZ

Download Data

Hourly Data (October 2016)
Hourly Data Report for October 26, 2016
Temp Definition
°C
Dew Point Temp Definition
°C
Rel Hum Definition
%
Wind Dir Definition
10's deg

Wind Spd Definition
km/h
Visibility Definition
km
Stn Press Definition
kPa
Hmdx Definition


Wind Chill Definition


Weather Definition


TIME
00:00 Legend Double Dagger 3.9 -4.8 53 35 13 24.1 101.00     LegendNANA
01:00 Legend Double Dagger 3.5 -4.5 56 35 12 24.1 100.99     Mostly Cloudy
02:00 Legend Double Dagger 2.4 -4.8 59 1 12 24.1 100.98     LegendNANA
03:00 Legend Double Dagger 1.7 -4.6 63 1 10 24.1 101.04     LegendNANA
04:00 Legend Double Dagger 1.0 -5.1 64 36 12 24.1 101.09     Clear
05:00 Legend Double Dagger 0.3 -4.4 71 32 12 24.1 101.13     LegendNANA
06:00 Legend Double Dagger 0.8 -5.1 65 31 9 24.1 101.15     LegendNANA
07:00 Legend Double Dagger 0.6 -5.7 63 32 8 24.1 101.19     Mainly Clear
08:00 Legend Double Dagger 2.1 -5.8 56 32 8 24.1 101.22     LegendNANA
09:00 Legend Double Dagger 2.8 -5.6 54 36 13 24.1 101.20     LegendNANA
10:00 Legend Double Dagger 3.5 -7.6 44 8 7 24.1 101.19     Cloudy
11:00 Legend Double Dagger 4.1 -7.4 43 1 5 24.1 101.19     LegendNANA
12:00 Legend Double Dagger 4.4 -6.8 44 1 6 24.1 101.13     LegendNANA
13:00 Legend Double Dagger 4.7 -6.2 45 4 7 24.1 101.05     Cloudy
14:00 Legend Double Dagger 4.8 -6.5 44 3 5 24.1 100.97     LegendNANA
15:00 Legend Double Dagger 4.8 -6.5 44 15 8 24.1 100.92     LegendNANA
16:00 Legend Double Dagger 4.6 -5.2 49 12 11 24.1 100.92     Cloudy
17:00 Legend Double Dagger 4.3 -5.2 50 10 14 24.1 100.87     LegendNANA
18:00 Legend Double Dagger 4.3 -5.5 49 10 8 24.1 100.92     LegendNANA
19:00 Legend Double Dagger 4.4 -5.4 49 8 13 24.1 100.87     Cloudy
20:00 Legend Double Dagger 4.6 -4.4 52 8 13 24.1 100.81     LegendNANA
21:00 Legend Double Dagger 4.9 -3.6 54 10 18 24.1 100.75     LegendNANA
22:00 Legend Double Dagger 5.0 -3.1 56 8 15 24.1 100.74     Cloudy
23:00 Legend Double Dagger 5.0 -1.7 62 10 16 24.1 100.67     Rain

Notes on Data Quality.

Legend

  • E = Estimated
  • M = Missing
  • NA = Not Available
  • ‡ = Partner data that is not subject to review by the National Climate Archives
Date modified: